Location: Moena
(46.3667°N, 11.6500°E)
Time: 13:04:44
(UTC+00:00)

Cosmos 2333 - Pass Details

Date: 03 March 2021
Orbit: 829 x 866 km, 70.9° (Epoch: 19 April)

Event Time Altitude Azimuth Distance (km) Brightness Sun altitude
Rises 18:30:05 0° 187° (S) 3,370 7.3 -15.9°
Reaches altitude 10° 18:32:34 10° 182° (S) 2,445 6.5 -16.3°
Maximum altitude 18:37:56 49° 109° (ESE) 1,082 4.3 -17.2°
Drops below altitude 10° 18:43:24 10° 36° (NE) 2,486 6.4 -18.1°
Sets 18:45:56 0° 31° (NNE) 3,431 7.2 -18.6°
